[[{"header":{"parameterUnit":"m.s-1","parameterCategory":2,"la1":30.2992,"la2":30.254,"lo1":-89.0895,"lo2":-89.0443,"dy":0.0025,"dx":0.0025,"nx":19,"ny":19,"refTime":"2026-03-29T09:00:00:Z","depth":"0","parameterNumber":2,"parameterNumberName":"U-component_of_CURRENTS"},"data":[0,0,0,0.1811,0.1812,0.184,0.184,0.1863,0.1863,0,0,0,0,0,0,0,0,0,0,0,0.1793,0.1793,0.1811,0.1812,0.184,0.184,0.1863,0.1863,0,0,0,0,0,0,0,0,0,0,0,0.1793,0.1793,0.1793,0.1812,0.184,0.184,0.1863,0.1843,0,0,0,0,0,0,0,0,0,0,0.1817,0.1803,0.1793,0.1793,0.1812,0.184,0.184,0.1842,0.1845,0.1848,0,0.1852,0,0.1864,0.1865,0.1865,0,0,0,0.1806,0.1801,0.1813,0.1794,0.1813,0.184,0.1826,0.1844,0.1846,0.1851,0.1852,0.1853,0.1865,0.1865,0.1865,0.1913,0.1914,0,0,0.1804,0.1795,0.1812,0.1815,0.1819,0.1825,0.1827,0.1845,0.1844,0.1852,0.1854,0.1865,0.1865,0.1865,0.1913,0.1913,0,0,0,0.1804,0.1793,0.1805,0.1813,0.1823,0.1826,0.1828,0.1843,0.1848,0.1855,0.1865,0.1865,0.1866,0.1913,0.1913,0.192,0,0,0,0.1803,0.1794,0.1804,0.1798,0.1823,0.1836,0.1825,0.1847,0.185,0.1865,0.1865,0.1866,0.1912,0.1913,0.1919,0.1901,0,0,0,0.1792,0.1793,0.1797,0.1798,0.1814,0.1836,0.1842,0.1848,0.1857,0.1865,0.1866,0.1912,0.1913,0.1918,0.1901,0.1902,0,0,0,0.178,0.1784,0.1796,0.1809,0.1814,0.1845,0.1842,0.186,0.1869,0.1866,0.1912,0.1913,0.1918,0.1901,0.1902,0.1835,0.1831,0,0,0.178,0.1784,0.1794,0.1806,0.1831,0.184,0.1869,0.1876,0.1883,0.1903,0.1904,0.1919,0.1901,0.1902,0.188,0.1875,0,0,0,0.1791,0.1792,0.1805,0.1821,0.1849,0.1865,0.1881,0.1896,0.1917,0.1893,0.1933,0.1921,0.1922,0.1882,0.1878,0.181,0.1917,0.1917,0.1916,0.1757,0.1782,0.1791,0.1818,0.1842,0.1884,0.1904,0.1926,0.1933,0.1949,0.1938,0.1956,0.1915,0.1911,0.1843,0.1962,0.1962,0.1962,0.1962,0.1736,0.1732,0.1767,0.1781,0.1817,0.1844,0.1912,0.1932,0.1959,0.1962,0.1963,0.1905,0.1907,0.1836,0.1963,0.1963,0.1963,0.1963,0.1963,0.1695,0.1694,0.1707,0.1728,0.1756,0.1817,0.1849,0.191,0.1951,0.1957,0.1909,0.1908,0.1834,0.1958,0.1958,0.1958,0.1958,0.1958,0.1958,0.1637,0.1651,0.1638,0.1675,0.1681,0.1727,0.1807,0.1834,0.1876,0.1897,0.1897,0.1828,0.1955,0.1941,0.1957,0.1957,0.1958,0.1958,0.1958,0.1576,0.1586,0.1564,0.1562,0.1581,0.1577,0.1674,0.1723,0.1768,0.1778,0.1748,0.1871,0.1856,0.1859,0.1843,0.1833,0.1833,0.1833,0.1833,0.1524,0.1534,0.1477,0.1452,0.1458,0.1495,0.1458,0.1522,0.1605,0.1611,0.166,0.1641,0.1649,0.1622,0.163,0.161,0.1541,0.154,0.154,0.1473,0.1466,0.1402,0.1387,0.1388,0.1383,0.132,0.1314,0.1434,0.1524,0.158,0.1592,0.1563,0.1581,0.154,0.1556,0.1524,0,0]},{"header":{"parameterUnit":"m.s-1","parameterCategory":2,"la1":30.2992,"la2":30.254,"lo1":-89.0895,"lo2":-89.0443,"dy":0.0025,"dx":0.0025,"nx":19,"ny":19,"refTime":"2026-03-29T09:00:00:Z","depth":"0","parameterNumber":3,"parameterNumberName":"V-component_of_CURRENTS"},"data":[0,0,0,-0.0162,-0.0162,-0.0171,-0.0171,-0.0195,-0.0195,0,0,0,0,0,0,0,0,0,0,0,-0.0158,-0.0158,-0.0162,-0.0162,-0.0171,-0.0171,-0.0194,-0.0195,0,0,0,0,0,0,0,0,0,0,0,-0.0158,-0.0158,-0.0158,-0.0162,-0.0171,-0.0171,-0.0194,-0.0186,0,0,0,0,0,0,0,0,0,0,-0.0176,-0.0167,-0.0158,-0.0158,-0.0162,-0.0171,-0.0171,-0.0185,-0.0186,-0.0192,0,-0.0189,0,-0.0191,-0.0196,-0.0196,0,0,0,-0.0167,-0.0166,-0.0169,-0.0158,-0.0162,-0.0171,-0.0168,-0.0186,-0.0187,-0.0194,-0.0189,-0.019,-0.0191,-0.0196,-0.0196,-0.0165,-0.0165,0,0,-0.0167,-0.0161,-0.0169,-0.017,-0.0158,-0.0168,-0.0169,-0.0187,-0.0185,-0.0189,-0.019,-0.0191,-0.0196,-0.0196,-0.0165,-0.0165,0,0,0,-0.0162,-0.016,-0.0163,-0.0169,-0.0169,-0.0168,-0.0169,-0.0184,-0.0185,-0.0191,-0.0192,-0.0196,-0.0197,-0.0166,-0.0165,-0.0084,0,0,0,-0.0162,-0.0157,-0.0163,-0.0159,-0.0168,-0.0175,-0.0166,-0.0184,-0.0186,-0.0192,-0.0196,-0.0197,-0.0167,-0.0166,-0.0087,-0.0031,0,0,0,-0.0159,-0.0157,-0.0156,-0.0159,-0.0161,-0.0174,-0.0176,-0.0184,-0.0186,-0.0196,-0.0197,-0.0167,-0.0166,-0.009,-0.0037,0.0022,0,0,0,-0.0155,-0.0131,-0.0156,-0.0127,-0.016,-0.0136,-0.0176,-0.017,-0.0173,-0.0197,-0.0166,-0.0165,-0.0091,-0.0041,0.0018,0.0067,0.0089,0,0,-0.0118,-0.0127,-0.0108,-0.013,-0.0085,-0.0136,-0.0087,-0.0117,-0.0157,-0.0164,-0.0163,-0.0086,-0.0038,0.0021,0.0135,0.0155,0,0,0,-0.0092,-0.0073,-0.0065,-0.0048,-0.005,-0.0029,-0.0067,-0.0075,-0.0083,-0.0154,-0.0085,-0.0056,-0.0022,-0.0001,0.0015,-0.0061,-0.016,-0.016,-0.016,-0.002,-0.002,0.0024,0.003,0.0041,0.0043,0.006,0.0041,-0.0023,-0.0013,0.001,0.0113,0.0136,0.0148,0.0069,-0.0002,-0.0001,-0.0001,-0.0001,0.006,0.009,0.0093,0.0131,0.0142,0.0173,0.018,0.0154,0.0173,0.0096,0.0124,0.0084,0.0171,0.008,0.0004,0.0003,0.0003,0.0002,0.0002,0.0112,0.0127,0.0142,0.0198,0.0256,0.0264,0.0346,0.0319,0.0265,0.0291,0.029,0.0289,0.0209,0.029,0.029,0.0291,0.0291,0.0291,0.0292,0.0155,0.0175,0.0226,0.0278,0.0325,0.0401,0.0441,0.0465,0.0455,0.0404,0.0403,0.0244,0.0202,0.0191,0.03,0.0298,0.0297,0.0297,0.0296,0.0229,0.0227,0.0311,0.036,0.0479,0.0585,0.0605,0.0658,0.0655,0.0667,0.0445,0.0462,0.0445,0.0431,0.0425,0.0588,0.0588,0.0588,0.0588,0.0277,0.0282,0.0397,0.0491,0.0608,0.0677,0.0786,0.0789,0.0675,0.0587,0.0521,0.0443,0.0435,0.0411,0.0397,0.0388,0.0537,0.0537,0.0537,0.0341,0.0362,0.0457,0.0535,0.0665,0.0774,0.0856,0.0845,0.0659,0.0523,0.0409,0.0412,0.0279,0.0272,0.0213,0.02,0.0176,0,0]}],[{"header":{"parameterUnit":"m.s-1","parameterCategory":2,"la1":30.2992,"la2":30.254,"lo1":-89.0895,"lo2":-89.0443,"dy":0.0025,"dx":0.0025,"nx":19,"ny":19,"refTime":"2026-03-29T09:00:00:Z","depth":"2","parameterNumber":2,"parameterNumberName":"U-component_of_CURRENTS"},"data":[0,0,0,0.1718,0.1719,0.1768,0.1768,0.1822,0.1823,0,0,0,0,0,0,0,0,0,0,0,0.1702,0.1703,0.1718,0.1719,0.1768,0.1768,0.1822,0.1823,0,0,0,0,0,0,0,0,0,0,0,0.1702,0.1703,0.1703,0.1719,0.1768,0.1768,0.1822,0.1788,0,0,0,0,0,0,0,0,0,0,0.1741,0.1728,0.1703,0.1703,0.1719,0.1768,0.1768,0.1786,0.179,0.1797,0,0.1807,0,0.1815,0.1826,0.1826,0,0,0,0.172,0.1725,0.1738,0.1703,0.172,0.1768,0.1746,0.1788,0.1792,0.1802,0.1808,0.181,0.1816,0.1827,0.1827,0.1895,0.1895,0,0,0.1718,0.1712,0.1735,0.174,0.1735,0.1745,0.1748,0.1791,0.1796,0.1808,0.1811,0.1817,0.1827,0.1827,0.1895,0.1895,0,0,0,0.1709,0.171,0.1722,0.1738,0.1747,0.1746,0.175,0.1795,0.1799,0.1812,0.1818,0.1827,0.1828,0.1894,0.1895,0.1892,0,0,0,0.1707,0.1705,0.1721,0.1718,0.1746,0.1773,0.1752,0.1796,0.1801,0.1817,0.1827,0.1828,0.1894,0.1895,0.1892,0.1889,0,0,0,0.17,0.1704,0.171,0.1717,0.1738,0.1772,0.1779,0.1797,0.1804,0.1826,0.1828,0.1894,0.1894,0.1891,0.1888,0.1889,0,0,0,0.1691,0.17,0.171,0.1726,0.1737,0.1769,0.1779,0.181,0.183,0.1827,0.1894,0.1895,0.1891,0.1887,0.1888,0.1799,0.1794,0,0,0.1695,0.17,0.171,0.172,0.1744,0.1762,0.1798,0.183,0.1846,0.1878,0.188,0.1892,0.1888,0.1889,0.1851,0.1844,0,0,0,0.1706,0.1709,0.1719,0.1738,0.1765,0.1793,0.1826,0.1843,0.1882,0.1863,0.1911,0.1909,0.1909,0.1855,0.185,0.1899,0.1899,0.1899,0.1899,0.1678,0.1702,0.1714,0.1745,0.1769,0.1821,0.1849,0.1882,0.1894,0.1916,0.1921,0.1939,0.1883,0.1878,0.1938,0.1938,0.1938,0.1938,0.1938,0.1663,0.1666,0.1702,0.1723,0.1765,0.1802,0.1867,0.1894,0.1935,0.1939,0.1939,0.1873,0.1872,0.1938,0.1938,0.1938,0.1938,0.1938,0.1938,0.1627,0.1633,0.1656,0.1689,0.1731,0.1792,0.1828,0.1892,0.1931,0.1945,0.1883,0.1882,0.1924,0.1943,0.1943,0.1943,0.1943,0.1943,0.1943,0.1579,0.1604,0.1605,0.1653,0.167,0.1722,0.1807,0.1833,0.186,0.1877,0.1876,0.1941,0.1941,0.1925,0.1943,0.1943,0.1943,0.1943,0.1943,0.1534,0.1549,0.1542,0.1551,0.1589,0.1585,0.168,0.1708,0.1753,0.175,0.1836,0.1839,0.1829,0.1832,0.1814,0.1802,0.1802,0.1802,0.1802,0.1494,0.1505,0.1473,0.1462,0.1474,0.1513,0.145,0.1469,0.1575,0.1602,0.1611,0.158,0.159,0.1566,0.1575,0.1551,0.1471,0.147,0.147,0.146,0.1453,0.1409,0.1405,0.1414,0.14,0.1303,0.1206,0.1281,0.1456,0.1547,0.1781,0.1758,0.1765,0.1747,0.1754,0.1725,0,0]},{"header":{"parameterUnit":"m.s-1","parameterCategory":2,"la1":30.2992,"la2":30.254,"lo1":-89.0895,"lo2":-89.0443,"dy":0.0025,"dx":0.0025,"nx":19,"ny":19,"refTime":"2026-03-29T09:00:00:Z","depth":"2","parameterNumber":3,"parameterNumberName":"V-component_of_CURRENTS"},"data":[0,0,0,0.0086,0.0086,0.007,0.0069,0.0057,0.0057,0,0,0,0,0,0,0,0,0,0,0,0.0089,0.0089,0.0086,0.0086,0.007,0.0069,0.0057,0.0057,0,0,0,0,0,0,0,0,0,0,0,0.0089,0.0089,0.0089,0.0086,0.007,0.0069,0.0057,0.0065,0,0,0,0,0,0,0,0,0,0,0.0079,0.008,0.0089,0.0089,0.0086,0.007,0.0069,0.0065,0.0064,0.0069,0,0.007,0,0.0068,0.0057,0.0057,0,0,0,0.0077,0.008,0.0082,0.0089,0.0086,0.007,0.0075,0.0064,0.0064,0.0068,0.0069,0.0069,0.0068,0.0057,0.0057,0.0071,0.0071,0,0,0.0078,0.0079,0.0082,0.0081,0.0086,0.0075,0.0074,0.0064,0.0062,0.0069,0.0069,0.0068,0.0057,0.0057,0.0071,0.0071,0,0,0,0.0086,0.008,0.0081,0.0082,0.0081,0.0075,0.0074,0.0062,0.0064,0.0068,0.0068,0.0057,0.0057,0.0071,0.0071,0.0137,0,0,0,0.0087,0.0085,0.0081,0.0081,0.0082,0.007,0.0072,0.0065,0.0064,0.0068,0.0057,0.0057,0.0071,0.0071,0.0135,0.0175,0,0,0,0.0088,0.0085,0.0086,0.0081,0.0079,0.007,0.0071,0.0064,0.0064,0.0057,0.0057,0.0071,0.0071,0.0133,0.0171,0.0206,0,0,0,0.0086,0.0104,0.0086,0.0109,0.0079,0.0105,0.0071,0.0079,0.0077,0.0057,0.0071,0.0071,0.0133,0.0169,0.0204,0.0212,0.0224,0,0,0.0112,0.0106,0.0124,0.0108,0.0149,0.0106,0.0141,0.0117,0.0081,0.0073,0.0073,0.0136,0.0171,0.0206,0.0232,0.0244,0,0,0,0.0135,0.015,0.0161,0.0175,0.018,0.0187,0.0157,0.0149,0.0131,0.0083,0.0124,0.0144,0.0164,0.0163,0.0173,0.0073,0.0073,0.0073,0.0073,0.0182,0.0188,0.0225,0.0234,0.0245,0.0241,0.0245,0.022,0.0179,0.0176,0.019,0.025,0.0249,0.0256,0.0172,0.0173,0.0173,0.0173,0.0173,0.0241,0.0266,0.0272,0.0305,0.0309,0.0329,0.0326,0.0301,0.0298,0.0246,0.0262,0.0222,0.0271,0.0178,0.0177,0.0177,0.0176,0.0176,0.0175,0.0277,0.0289,0.03,0.0344,0.0384,0.0389,0.0442,0.0414,0.0365,0.0377,0.0355,0.0353,0.0302,0.0376,0.0376,0.0376,0.0377,0.0377,0.0377,0.0303,0.0318,0.0354,0.0396,0.0431,0.0487,0.0509,0.0514,0.0483,0.0435,0.0434,0.0319,0.0312,0.0313,0.0382,0.0381,0.0381,0.038,0.038,0.0348,0.0348,0.0409,0.0444,0.0535,0.0606,0.0621,0.0625,0.0609,0.0596,0.0463,0.0459,0.044,0.0431,0.0435,0.0531,0.0531,0.0531,0.0531,0.0374,0.0381,0.046,0.0531,0.0618,0.0667,0.0719,0.0688,0.0614,0.0546,0.0545,0.0496,0.0489,0.0469,0.0459,0.0461,0.0565,0.0565,0.0565,0.0407,0.0426,0.0489,0.0556,0.0654,0.0724,0.075,0.0695,0.0577,0.0565,0.0536,0.0536,0.0459,0.0451,0.0412,0.0399,0.0399,0,0]}],[{"header":{"parameterUnit":"m.s-1","parameterCategory":2,"la1":30.2992,"la2":30.254,"lo1":-89.0895,"lo2":-89.0443,"dy":0.0025,"dx":0.0025,"nx":19,"ny":19,"refTime":"2026-03-29T09:00:00:Z","depth":"4","parameterNumber":2,"parameterNumberName":"U-component_of_CURRENTS"},"data":[0,0,0,0.0979,0.0981,0.107,0.1071,0.1131,0.1131,0,0,0,0,0,0,0,0,0,0,0,0.0951,0.0952,0.0979,0.0981,0.107,0.1071,0.1131,0.1131,0,0,0,0,0,0,0,0,0,0,0,0.0951,0.0952,0.0953,0.0981,0.107,0.1071,0.1131,0.1077,0,0,0,0,0,0,0,0,0,0,0.0997,0.0983,0.0952,0.0953,0.0982,0.107,0.1071,0.1075,0.108,0.1075,0,0.1095,0,0.1112,0.1134,0.1134,0,0,0,0.0982,0.0979,0.0998,0.0953,0.0983,0.107,0.103,0.1078,0.1084,0.1081,0.1096,0.1099,0.1113,0.1134,0.1134,0.119,0.1191,0,0,0.0977,0.097,0.0994,0.1002,0.1013,0.1027,0.1033,0.1082,0.1093,0.1096,0.11,0.1114,0.1134,0.1135,0.119,0.119,0,0,0,0.0962,0.0966,0.0986,0.0999,0.1019,0.103,0.1036,0.1091,0.1097,0.1101,0.1115,0.1135,0.1135,0.119,0.119,0.1226,0,0,0,0.0959,0.0958,0.0984,0.0981,0.1018,0.1064,0.1044,0.1094,0.11,0.1114,0.1135,0.1136,0.1189,0.119,0.1224,0.1228,0,0,0,0.0946,0.0956,0.0968,0.098,0.1018,0.1064,0.1074,0.1096,0.1107,0.1134,0.1136,0.1189,0.119,0.1223,0.1226,0.1252,0,0,0,0.0933,0.0949,0.0968,0.099,0.1017,0.1062,0.1074,0.112,0.1146,0.1135,0.1189,0.119,0.1222,0.1225,0.125,0.1089,0,0,0,0.0939,0.095,0.0959,0.0979,0.1014,0.1049,0.1094,0.1139,0.1152,0.1168,0.1171,0.1225,0.1226,0.1251,0.1134,0,0,0,0,0.0951,0.096,0.0974,0.1003,0.1039,0.1088,0.1132,0.1154,0.1205,0.1171,0.123,0.1229,0.1244,0.1146,0.1194,0.1194,0.1194,0.1193,0.1193,0.0941,0.0961,0.0981,0.1016,0.1053,0.1122,0.1164,0.1204,0.1215,0.1249,0.1262,0.131,0.1208,0.1273,0.1273,0.1273,0.1273,0.1273,0.1273,0.0934,0.0938,0.0985,0.1017,0.1076,0.113,0.1203,0.1238,0.1298,0.1293,0.1307,0.1195,0.1277,0.1276,0.1276,0.1275,0.1275,0.1275,0.1275,0.0904,0.0911,0.0948,0.1006,0.1077,0.1151,0.1214,0.1283,0.1326,0.1354,0.1258,0.1333,0.1325,0.1374,0.1374,0.1374,0.1375,0.1375,0.1375,0.0858,0.0892,0.093,0.0997,0.1045,0.1125,0.1235,0.1268,0.1331,0.1273,0.1372,0.1343,0.134,0.1331,0.1377,0.1377,0.1376,0.1376,0.1376,0.0815,0.085,0.0889,0.0935,0.1025,0.1061,0.118,0.1202,0.1229,0.1206,0.1227,0.1234,0.1204,0.1204,0.1189,0.1195,0.1193,0.1191,0,0.0787,0.0805,0.0859,0.0904,0.0941,0.1017,0.101,0.1062,0.1111,0.1076,0.1235,0.1258,0.1261,0.1228,0.1225,0.1206,0,0,0,0.0769,0.0789,0.0809,0.0861,0.0893,0.0922,0.1001,0.0981,0.1104,0.1072,0.1143,0.1156,0.1285,0.1384,0.1355,0.1351,0.1334,0,0]},{"header":{"parameterUnit":"m.s-1","parameterCategory":2,"la1":30.2992,"la2":30.254,"lo1":-89.0895,"lo2":-89.0443,"dy":0.0025,"dx":0.0025,"nx":19,"ny":19,"refTime":"2026-03-29T09:00:00:Z","depth":"4","parameterNumber":3,"parameterNumberName":"V-component_of_CURRENTS"},"data":[0,0,0,0.0229,0.0229,0.0252,0.0252,0.0279,0.0279,0,0,0,0,0,0,0,0,0,0,0,0.0222,0.0222,0.0229,0.0229,0.0252,0.0252,0.0279,0.0279,0,0,0,0,0,0,0,0,0,0,0,0.0221,0.0222,0.0222,0.0229,0.0252,0.0252,0.0278,0.0262,0,0,0,0,0,0,0,0,0,0,0.0241,0.0236,0.0222,0.0222,0.0229,0.0252,0.0252,0.0261,0.0263,0.0267,0,0.0271,0,0.0275,0.028,0.0281,0,0,0,0.023,0.0234,0.0238,0.0222,0.023,0.0252,0.0242,0.0262,0.0264,0.027,0.0272,0.0273,0.0276,0.0281,0.0281,0.0295,0.0295,0,0,0.0229,0.0228,0.0237,0.024,0.0236,0.0241,0.0243,0.0264,0.0267,0.0272,0.0273,0.0276,0.0281,0.0281,0.0295,0.0295,0,0,0,0.0225,0.0227,0.0231,0.0238,0.0243,0.0242,0.0244,0.0266,0.0267,0.0274,0.0276,0.0281,0.0281,0.0295,0.0295,0.0309,0,0,0,0.0224,0.0224,0.023,0.023,0.0242,0.0255,0.0246,0.0266,0.0268,0.0276,0.0281,0.0281,0.0295,0.0295,0.0309,0.0319,0,0,0,0.022,0.0224,0.0226,0.023,0.0239,0.0255,0.0257,0.0266,0.027,0.0281,0.0281,0.0295,0.0295,0.0309,0.0318,0.0307,0,0,0,0.0218,0.023,0.0226,0.0244,0.0238,0.0261,0.0257,0.0276,0.0287,0.0281,0.0295,0.0295,0.0309,0.0317,0.0307,0.0307,0,0,0,0.0232,0.0231,0.0243,0.024,0.0268,0.0258,0.0281,0.0291,0.0285,0.0288,0.0288,0.0309,0.0318,0.0307,0.0302,0,0,0,0,0.0247,0.0256,0.0265,0.0279,0.029,0.0296,0.0301,0.0296,0.0296,0.029,0.0304,0.0308,0.0301,0.03,0.0294,0.0294,0.0294,0.0294,0.0294,0.0262,0.0272,0.0295,0.0307,0.0318,0.0324,0.0322,0.0312,0.0311,0.0305,0.0316,0.0313,0.0313,0.0309,0.0309,0.031,0.031,0.031,0.031,0.0285,0.0299,0.0313,0.0339,0.0344,0.0359,0.0345,0.0337,0.032,0.0319,0.0311,0.0311,0.0311,0.0311,0.0311,0.031,0.031,0.031,0.031,0.0293,0.0301,0.032,0.0351,0.0376,0.0383,0.0389,0.0372,0.0338,0.033,0.032,0.0317,0.032,0.0327,0.0327,0.0327,0.0327,0.0327,0.0327,0.029,0.0309,0.0332,0.0367,0.039,0.0415,0.0415,0.0397,0.0365,0.0336,0.0337,0.0319,0.0318,0.0321,0.0327,0.0327,0.0327,0.0327,0.0327,0.029,0.0303,0.0335,0.0359,0.0412,0.0428,0.044,0.0403,0.0375,0.0338,0.0328,0.0328,0.032,0.0319,0.0321,0.0328,0.0328,0.0328,0,0.0285,0.0295,0.0332,0.0367,0.0404,0.0431,0.0417,0.0401,0.0349,0.0343,0.0353,0.0342,0.0342,0.0334,0.0333,0.0336,0,0,0,0.0278,0.0293,0.0312,0.0356,0.0396,0.0402,0.0412,0.0391,0.0372,0.0343,0.0328,0.0328,0.0346,0.0327,0.0314,0.0313,0.0316,0,0]}]]